Location: Bougoura
(13.1861°N, 5.0773°W)
Time: 10:06:25
(UTC+00:00)

Okean O Rocket - Pass Details

Date: 26 January 2021
Orbit: 622 x 645 km, 98.2° (Epoch: 25 February)

Event Time Altitude Azimuth Distance (km) Brightness Sun altitude
Rises 18:33:33 0° 177° (S) 2,945 5.2 -4.3°
Reaches altitude 10° 18:35:48 10° 181° (S) 2,035 4.5 -4.8°
Maximum altitude 18:40:08 55° 258° (WSW) 776 2.6 -5.8°
Drops below altitude 10° 18:44:28 10° 337° (NNW) 2,029 4.3 -6.8°
Sets 18:46:42 0° 341° (NNW) 2,935 5.1 -7.3°
